When you browse on this site, cookies collect data to enhance your experience and personalize the content and advertising you see.
Visit our Privacy Policy to learn more. By continuing to use the site, you agree to this use of cookies and data.
  • In Germany
  • List of Countries
  • For 7 days
  • Water Temperature
  • Weather Map
  • Weather Widgets
  • user-avatar
    Login

    Hourly Weather Malanje

    Today, 16 December, Monday

    Time Temperature Precipitation Wind Pressure Humidity
    00:00 +20°C° 0.5 mm 1 mps 664 mmHg 96%
    01:00 +20°C° 0.5 mm 1 mps 664 mmHg 97%
    02:00 +17°C° 0 mm 0 mps 664 mmHg 97%
    03:00 +17°C° 0 mm 0 mps 664 mmHg 97%
    04:00 +17°C° 0 mm 0 mps 664 mmHg 97%
    05:00 +18°C° 0 mm 0 mps 664 mmHg 96%
    06:00 +18°C° 0 mm 0 mps 665 mmHg 95%
    07:00 +19°C° 0 mm 0 mps 665 mmHg 95%
    08:00 +21°C° 0.1 mm 0 mps 666 mmHg 87%
    09:00 +25°C° 0.1 mm 1 mps 666 mmHg 80%
    10:00 +27°C° 0.1 mm 1 mps 666 mmHg 72%
    11:00 +27°C° 0.2 mm 1 mps 666 mmHg 69%
    12:00 +28°C° 0.2 mm 1 mps 665 mmHg 66%
    13:00 +29°C° 0.2 mm 2 mps 665 mmHg 62%
    14:00 +28°C° 0.7 mm 2 mps 664 mmHg 68%
    15:00 +28°C° 0.7 mm 1 mps 663 mmHg 74%
    16:00 +27°C° 0.7 mm 1 mps 663 mmHg 80%
    17:00 +25°C° 0.8 mm 1 mps 663 mmHg 85%
    18:00 +24°C° 0.8 mm 1 mps 663 mmHg 90%
    19:00 +22°C° 0.8 mm 1 mps 663 mmHg 94%
    20:00 +22°C° 0.3 mm 1 mps 663 mmHg 95%
    21:00 +21°C° 0.3 mm 1 mps 664 mmHg 96%
    22:00 +21°C° 0.3 mm 1 mps 664 mmHg 97%
    23:00 +21°C° 0.3 mm 1 mps 664 mmHg 96%

    Tomorrow, 17 December, Tuesday

    Time Temperature Precipitation Wind Pressure Humidity
    00:00 +21°C° 0.3 mm 1 mps 664 mmHg 96%
    01:00 +21°C° 0.3 mm 1 mps 664 mmHg 96%
    02:00 +20°C° 0.4 mm 1 mps 663 mmHg 96%
    03:00 +18°C° 0.4 mm 0 mps 663 mmHg 97%
    04:00 +18°C° 0.4 mm 0 mps 663 mmHg 97%
    05:00 +18°C° 0.5 mm 0 mps 664 mmHg 97%
    06:00 +19°C° 0.5 mm 0 mps 664 mmHg 97%
    07:00 +19°C° 0.5 mm 0 mps 665 mmHg 97%
    08:00 +22°C° 0.5 mm 1 mps 665 mmHg 95%
    09:00 +23°C° 0.5 mm 1 mps 665 mmHg 93%
    10:00 +23°C° 0.5 mm 1 mps 665 mmHg 92%
    11:00 +24°C° 0.5 mm 1 mps 665 mmHg 87%
    12:00 +25°C° 0.5 mm 1 mps 664 mmHg 83%
    13:00 +24°C° 0.5 mm 0 mps 664 mmHg 79%
    14:00 +24°C° 0 mm 0 mps 663 mmHg 78%
    15:00 +26°C° 0 mm 1 mps 663 mmHg 76%
    16:00 +26°C° 0 mm 1 mps 662 mmHg 75%
    17:00 +25°C° 0.4 mm 1 mps 663 mmHg 80%
    18:00 +23°C° 0.4 mm 1 mps 663 mmHg 86%
    19:00 +22°C° 0.4 mm 1 mps 663 mmHg 91%
    20:00 +21°C° 1.5 mm 1 mps 664 mmHg 93%
    21:00 +21°C° 1.5 mm 1 mps 664 mmHg 95%
    22:00 +21°C° 1.5 mm 1 mps 664 mmHg 97%
    23:00 +21°C° 0.1 mm 1 mps 664 mmHg 97%

    Day after tomorrow, 18 December, Wednesday

    Time Temperature Precipitation Wind Pressure Humidity
    00:00 +21°C° 0.1 mm 1 mps 664 mmHg 97%
    01:00 +20°C° 0.1 mm 1 mps 664 mmHg 97%
    02:00 +20°C° 0.1 mm 1 mps 663 mmHg 97%
    03:00 +20°C° 0.1 mm 1 mps 663 mmHg 98%
    04:00 +20°C° 0.1 mm 1 mps 663 mmHg 98%
    05:00 +20°C° 0 mm 1 mps 663 mmHg 97%
    06:00 +21°C° 0 mm 1 mps 664 mmHg 97%
    07:00 +21°C° 0 mm 1 mps 664 mmHg 96%
    08:00 +22°C° 0.1 mm 1 mps 665 mmHg 90%
    09:00 +24°C° 0.1 mm 1 mps 665 mmHg 84%
    10:00 +25°C° 0.1 mm 1 mps 665 mmHg 79%
    11:00 +26°C° 1.2 mm 1 mps 665 mmHg 79%
    12:00 +26°C° 1.2 mm 1 mps 664 mmHg 79%
    13:00 +27°C° 1.2 mm 1 mps 663 mmHg 79%
    14:00 +27°C° 1.1 mm 1 mps 663 mmHg 81%
    15:00 +26°C° 1.1 mm 2 mps 662 mmHg 83%
    16:00 +26°C° 1.1 mm 2 mps 662 mmHg 85%
    17:00 +25°C° 0.8 mm 2 mps 662 mmHg 88%
    18:00 +23°C° 0.8 mm 2 mps 663 mmHg 92%
    19:00 +21°C° 0.8 mm 2 mps 663 mmHg 95%
    20:00 +21°C° 0.5 mm 2 mps 663 mmHg 95%
    21:00 +20°C° 0.5 mm 2 mps 664 mmHg 95%
    22:00 +20°C° 0.5 mm 2 mps 664 mmHg 95%
    23:00 +19°C° 0.1 mm 2 mps 664 mmHg 95%

    19 December, Thursday

    Time Temperature Precipitation Wind Pressure Humidity
    00:00 +19°C° 0.1 mm 2 mps 664 mmHg 96%
    01:00 +20°C° 0.1 mm 1 mps 663 mmHg 96%
    02:00 +20°C° 0 mm 1 mps 663 mmHg 96%
    03:00 +20°C° 0 mm 1 mps 663 mmHg 97%
    04:00 +20°C° 0 mm 1 mps 663 mmHg 97%
    05:00 +20°C° 0.1 mm 1 mps 664 mmHg 97%
    06:00 +20°C° 0.1 mm 1 mps 664 mmHg 97%
    07:00 +20°C° 0.1 mm 1 mps 665 mmHg 96%
    08:00 +20°C° 0.2 mm 1 mps 665 mmHg 95%
    09:00 +21°C° 0.2 mm 1 mps 665 mmHg 93%
    10:00 +21°C° 0.2 mm 1 mps 665 mmHg 92%
    11:00 +21°C° 0.1 mm 2 mps 665 mmHg 88%
    12:00 +21°C° 0.1 mm 2 mps 665 mmHg 85%
    13:00 +23°C° 0.1 mm 2 mps 664 mmHg 82%
    14:00 +23°C° 0 mm 2 mps 664 mmHg 79%
    15:00 +24°C° 0 mm 2 mps 664 mmHg 77%
    16:00 +24°C° 0 mm 2 mps 663 mmHg 75%
    17:00 +23°C° 0 mm 2 mps 663 mmHg 80%
    18:00 +21°C° 0 mm 1 mps 664 mmHg 86%
    19:00 +20°C° 0 mm 1 mps 664 mmHg 91%
    20:00 +20°C° 0 mm 1 mps 664 mmHg 92%
    21:00 +19°C° 0 mm 1 mps 665 mmHg 93%
    22:00 +19°C° 0 mm 1 mps 665 mmHg 94%
    23:00 +19°C° 0 mm 1 mps 665 mmHg 94%

    20 December, Friday

    Time Temperature Precipitation Wind Pressure Humidity
    00:00 +19°C° 0 mm 1 mps 665 mmHg 95%
    01:00 +19°C° 0 mm 1 mps 665 mmHg 95%
    02:00 +19°C° 0 mm 1 mps 664 mmHg 94%
    03:00 +19°C° 0 mm 1 mps 664 mmHg 93%
    04:00 +18°C° 0 mm 2 mps 664 mmHg 93%
    05:00 +20°C° 0 mm 1 mps 665 mmHg 92%
    06:00 +20°C° 0 mm 1 mps 665 mmHg 92%
    07:00 +20°C° 0 mm 1 mps 666 mmHg 91%
    08:00 +21°C° 0 mm 1 mps 666 mmHg 85%
    09:00 +23°C° 0 mm 1 mps 667 mmHg 79%
    10:00 +24°C° 0 mm 2 mps 667 mmHg 73%
    11:00 +25°C° 0 mm 2 mps 666 mmHg 69%
    12:00 +26°C° 0 mm 2 mps 666 mmHg 64%
    13:00 +27°C° 0 mm 2 mps 665 mmHg 60%
    14:00 +27°C° 0 mm 2 mps 665 mmHg 63%
    15:00 +27°C° 0 mm 2 mps 665 mmHg 65%
    16:00 +27°C° 0 mm 2 mps 664 mmHg 68%
    17:00 +25°C° 0.3 mm 2 mps 664 mmHg 76%
    18:00 +23°C° 0.3 mm 2 mps 664 mmHg 84%
    19:00 +21°C° 0.3 mm 1 mps 664 mmHg 92%
    20:00 +21°C° 0 mm 1 mps 664 mmHg 93%
    21:00 +20°C° 0 mm 1 mps 664 mmHg 94%
    22:00 +20°C° 0 mm 1 mps 665 mmHg 95%
    23:00 +20°C° 0 mm 1 mps 665 mmHg 95%

    21 December, Saturday

    Time Temperature Precipitation Wind Pressure Humidity
    00:00 +20°C° 0 mm 1 mps 664 mmHg 95%
    01:00 +20°C° 0 mm 1 mps 664 mmHg 95%
    02:00 +20°C° 0 mm 1 mps 664 mmHg 95%
    03:00 +20°C° 0 mm 1 mps 664 mmHg 95%
    04:00 +20°C° 0 mm 1 mps 664 mmHg 95%
    05:00 +20°C° 0.1 mm 1 mps 664 mmHg 95%
    06:00 +20°C° 0.1 mm 1 mps 665 mmHg 95%
    07:00 +20°C° 0.1 mm 1 mps 665 mmHg 96%
    08:00 +20°C° 0.2 mm 1 mps 665 mmHg 94%
    09:00 +21°C° 0.2 mm 1 mps 665 mmHg 93%
    10:00 +22°C° 0.2 mm 1 mps 666 mmHg 91%
    11:00 +23°C° 0.1 mm 1 mps 665 mmHg 84%
    12:00 +25°C° 0.1 mm 1 mps 665 mmHg 77%
    13:00 +26°C° 0.1 mm 2 mps 665 mmHg 70%
    14:00 +26°C° 0.3 mm 1 mps 664 mmHg 72%
    15:00 +26°C° 0.3 mm 1 mps 664 mmHg 74%
    16:00 +26°C° 0.3 mm 1 mps 663 mmHg 76%
    17:00 +25°C° 0.4 mm 1 mps 663 mmHg 81%
    18:00 +23°C° 0.4 mm 1 mps 663 mmHg 86%
    19:00 +21°C° 0.4 mm 1 mps 663 mmHg 92%
    20:00 +21°C° 0.5 mm 1 mps 664 mmHg 93%
    21:00 +20°C° 0.5 mm 1 mps 664 mmHg 94%
    22:00 +20°C° 0.5 mm 1 mps 664 mmHg 94%
    23:00 +19°C° 0 mm 1 mps 664 mmHg 95%
    Show more